KN4CCE-13 Weather Reports


time (UTC)temp
C
wind
direction
speed
KPH
gust
KPH
rain 1hr
cm
rain 24hr
cm
rain mn
cm
humidity
%
barometer
mb
20260510203010 28 317 0.0 1.6 0.00 0.00 0.00 34 1013.9
20260510201504 28 127 0.0 0.0 0.00 0.00 0.00 34 1013.9
20260510200004 28 286 0.0 0.0 0.00 0.00 0.00 32 1014.1
20260510194518 28 40 0.0 1.6 0.00 0.00 0.00 37 1013.8
20260510193012 28 182 0.0 0.0 0.00 0.00 0.00 35 1014.3
20260510191514 28 98 0.0 0.0 0.00 0.00 0.00 36 1014.3
20260510190004 28 275 0.0 0.0 0.00 0.00 0.00 34 1014.5
20260510184507 28 292 0.0 0.0 0.00 0.00 0.00 36 1014.6
20260510183006 28 294 0.0 0.0 0.00 0.00 0.00 33 1014.7
20260510181516 28 154 0.0 1.6 0.00 0.00 0.00 33 1014.9
20260510180018 27 307 0.0 0.0 0.00 0.00 0.00 34 1014.9
20260510174506 27 307 0.0 0.0 0.00 0.00 0.00 36 1015.0
20260510173008 28 104 0.0 0.0 0.00 0.00 0.00 39 1014.9
20260510171516 27 94 0.0 0.0 0.00 0.00 0.00 39 1015.1
20260510170007 28 125 0.0 0.0 0.00 0.00 0.00 39 1015.1
20260510164521 27 130 0.0 0.0 0.00 0.00 0.00 37 1015.2
20260510163023 26 283 0.0 4.8 0.00 0.00 0.00 43 1015.4
20260510161509 26 17 0.0 0.0 0.00 0.00 0.00 45 1015.5
20260510160015 26 22 0.0 0.0 0.00 0.00 0.00 46 1015.6
20260510154513 26 300 0.0 0.0 0.00 0.00 0.00 47 1015.8
20260510153010 25 291 0.0 0.0 0.00 0.00 0.00 52 1016.0
20260510151527 25 291 0.0 0.0 0.00 0.00 0.00 55 1015.9
20260510150012 24 225 0.0 0.0 0.00 0.00 0.00 56 1015.7
20260510144515 23 249 0.0 0.0 0.00 0.00 0.00 60 1015.7
20260510143024 23 250 0.0 0.0 0.00 0.00 0.00 64 1015.8
20260510141516 22 150 0.0 0.0 0.00 0.00 0.00 67 1015.7
20260510140010 22 150 0.0 0.0 0.00 0.00 0.00 70 1015.7
20260510134516 21 150 0.0 0.0 0.00 0.00 0.00 72 1015.9
20260510133017 21 150 0.0 0.0 0.00 0.00 0.00 76 1015.7
20260510131504 20 150 0.0 0.0 0.00 0.00 0.00 83 1015.8
20260510130004 19 150 0.0 0.0 0.00 0.00 0.00 89 1015.4
20260510124519 18 152 0.0 0.0 0.00 0.00 0.00 92 1015.2
20260510123012 17 152 0.0 0.0 0.00 0.00 0.00 95 1015.1
20260510121507 16 152 0.0 0.0 0.00 0.00 0.00 96 1015.1
20260510120010 16 152 0.0 0.0 0.00 0.00 0.00 97 1015.0
20260510114508 16 152 0.0 0.0 0.00 0.00 0.00 97 1014.8
20260510113004 15 152 0.0 0.0 0.00 0.00 0.00 97 1014.5
20260510111516 15 152 0.0 0.0 0.00 0.00 0.00 97 1014.3
20260510110005 15 152 0.0 0.0 0.00 0.00 0.00 97 1014.1
20260510104508 15 152 0.0 0.0 0.00 0.00 0.00 97 1013.9
20260510103007 15 152 0.0 0.0 0.00 0.00 0.00 97 1013.9
20260510101506 15 152 0.0 0.0 0.00 0.00 0.00 97 1013.6
20260510100004 15 152 0.0 0.0 0.00 0.00 0.00 97 1013.2
20260510094506 15 111 0.0 0.0 0.00 0.00 0.00 97 1013.0
20260510093009 15 111 0.0 0.0 0.00 0.00 0.00 96 1012.6
20260510091512 15 111 0.0 0.0 0.00 0.00 0.00 96 1012.7
20260510090011 15 111 0.0 0.0 0.00 0.00 0.00 97 1012.4
20260510084507 15 111 0.0 0.0 0.00 0.00 0.00 97 1012.5
20260510083017 15 111 0.0 0.0 0.00 0.00 0.00 96 1012.3
20260510081509 15 111 0.0 0.0 0.00 0.00 0.00 96 1012.2
20260510080025 15 111 0.0 0.0 0.00 0.00 0.00 96 1012.2
20260510074516 15 111 0.0 0.0 0.00 0.00 0.00 96 1012.2
20260510073016 15 111 0.0 0.0 0.00 0.00 0.00 96 1012.1
20260510071508 15 111 0.0 0.0 0.00 0.00 0.00 96 1012.0
20260510070013 15 111 0.0 0.0 0.00 0.00 0.00 96 1012.1
20260510064520 15 111 0.0 0.0 0.00 0.00 0.00 96 1012.2
20260510063025 15 111 0.0 0.0 0.00 0.00 0.00 96 1012.1
20260510061518 15 111 0.0 0.0 0.00 0.00 0.00 96 1011.9
20260510060009 15 111 0.0 0.0 0.00 0.00 0.00 96 1012.1
20260510054512 16 111 0.0 0.0 0.00 0.00 0.00 95 1012.2
20260510053008 16 111 0.0 0.0 0.00 0.00 0.00 96 1012.4
20260510051524 16 111 0.0 0.0 0.00 0.00 0.00 96 1012.5
20260510050026 16 111 0.0 0.0 0.00 0.00 0.00 96 1012.5
20260510044523 16 111 0.0 0.0 0.00 0.00 0.00 96 1012.7
20260510043015 16 111 0.0 0.0 0.00 0.00 0.00 95 1012.6
20260510041518 16 111 0.0 0.0 0.00 0.00 0.00 95 1012.6
20260510040009 16 111 0.0 0.0 0.00 0.00 0.00 95 1012.7
20260510034508 16 111 0.0 0.0 0.00 0.00 0.00 95 1012.5
20260510033008 16 111 0.0 0.0 0.00 0.00 0.00 94 1012.5
20260510031514 16 111 0.0 0.0 0.00 0.00 0.00 94 1012.4
20260510030021 16 111 0.0 0.0 0.00 0.00 0.00 94 1012.4
20260510024522 16 111 0.0 0.0 0.00 0.00 0.00 93 1012.3
20260510023010 16 111 0.0 0.0 0.00 0.00 0.00 93 1012.3
20260510021516 16 111 0.0 0.0 0.00 0.00 0.00 93 1012.1
20260510020009 16 111 0.0 0.0 0.00 0.00 0.00 92 1012.0
20260510014523 17 111 0.0 0.0 0.00 0.00 0.00 92 1012.1
20260510013025 17 111 0.0 0.0 0.00 0.00 0.00 91 1011.7
20260510011525 17 111 0.0 0.0 0.00 0.00 0.00 89 1011.4
20260510010016 18 111 0.0 0.0 0.00 0.00 0.00 88 1011.2
20260510004514 18 111 0.0 0.0 0.00 0.00 0.00 86 1011.2
20260510003009 19 111 0.0 0.0 0.00 0.00 0.00 83 1011.2
20260510001528 20 111 0.0 0.0 0.00 0.00 0.00 83 1011.2
20260510000016 20 111 0.0 0.0 0.00 0.00 0.00 82 1011.0
20260509234515 20 111 0.0 0.0 0.00 0.00 0.00 81 1011.0
20260509233024 21 111 0.0 0.0 0.00 0.00 0.00 79 1010.6
20260509231518 21 111 0.0 0.0 0.00 0.00 0.00 78 1010.7
20260509230012 21 111 0.0 0.0 0.00 0.00 0.00 76 1010.3
20260509224515 22 111 0.0 0.0 0.00 0.00 0.00 74 1010.2
20260509223019 22 111 0.0 0.0 0.00 0.00 0.00 73 1010.4
20260509221523 22 111 0.0 0.0 0.00 0.00 0.00 73 1010.4
20260509220025 22 111 0.0 0.0 0.00 0.00 0.00 74 1010.4
20260509214527 21 111 0.0 0.0 0.00 0.00 0.00 74 1010.4
20260509213016 22 111 0.0 0.0 0.00 0.00 0.00 74 1010.4
20260509211521 22 111 0.0 0.0 0.00 0.00 0.00 73 1010.2
20260509210034 22 110 0.0 0.0 0.00 0.00 0.00 73 1010.1
20260509204534 21 122 0.0 0.0 0.00 0.00 0.00 74 1010.1